Temperature
15 15 16 16 16 17 18 21 22 22 22 22 22 22 22 21 21 18 17 17 16 16 17 16 16 16 16 16 16 16 16 16 16 16 16 16 16 16 16 16 16 16 16 16 16 16 16 16 16
15 15 15 16 16 17 19 20 21 21 21 20 20 21 21 21 19 18 17 16 16 16 16 16 16 16 16 16 16 16 16 16 16 16 16 16 16 16 15 15 16 16 16 16 16 16 16 16 16
15 15 16 17 17 18 20 20 20 20 20 20 20 20 21 20 18 17 16 16 16 16 16 16 16 16 16 16 16 16 16 16 16 16 16 16 15 15 15 15 15 15 15 15 15 16 16 16 16
14 15 16 16 17 19 20 20 20 19 19 20 20 20 19 18 17 17 16 16 15 15 15 16 16 16 16 16 16 15 15 15 15 16 15 15 15 15 15 15 15 15 15 15 15 15 15 15 15
14 15 16 16 18 19 20 20 20 19 19 19 19 19 18 17 17 16 16 16 15 15 15 15 15 15 15 15 15 15 15 15 15 15 15 15 15 15 15 15 15 15 15 15 15 15 15 15 15
15 16 16 16 18 19 20 20 19 19 19 19 19 18 17 16 16 16 15 15 15 15 15 15 15 15 15 15 15 15 15 15 15 15 15 15 15 15 15 15 15 15 15 15 15 15 15 15 15
15 15 16 17 18 19 19 19 19 18 18 19 18 18 17 16 15 15 15 15 15 14 14 14 15 15 15 15 15 15 15 15 15 15 15 15 15 15 15 15 15 15 15 15 15 15 15 15 15
14 15 16 17 18 18 19 19 18 18 18 18 17 17 16 15 15 14 14 14 14 14 14 14 14 14 14 14 14 15 15 15 15 15 15 15 15 15 15 15 15 15 15 15 15 15 15 15 15
14 14 14 17 18 18 18 17 17 17 17 17 16 16 16 15 14 14 14 13 13 13 13 13 13 14 14 14 14 14 14 14 14 14 14 14 14 14 14 15 15 14 15 15 15 15 15 15 14
14 13 15 17 17 17 17 17 17 16 16 16 16 15 15 15 14 14 13 13 13 13 13 13 13 13 13 13 14 14 14 14 14 14 14 14 14 14 14 14 14 14 14 14 14 14 14 14 14
14 14 16 16 16 16 16 16 16 15 15 16 15 15 14 14 14 13 13 13 13 13 13 13 13 13 13 13 13 13 13 13 13 13 13 13 14 14 14 14 14 14 14 14 14 14 14 14 14
15 15 15 15 15 15 15 15 15 15 15 15 15 15 14 13 13 13 13 12 12 12 13 13 13 13 13 13 13 13 13 13 13 13 13 13 13 13 14 14 14 14 14 14 14 14 13 13 13
14 14 15 15 14 14 14 14 14 14 15 15 14 14 14 13 13 13 12 12 12 12 12 12 12 12 12 12 12 12 13 13 13 13 13 13 13 13 13 13 14 14 13 13 13 13 13 13 13
14 14 14 14 14 14 13 14 14 14 14 14 14 14 13 13 12 12 12 12 12 12 12 12 12 12 12 12 12 12 12 12 13 13 13 13 13 13 13 13 13 13 13 13 13 13 13 13 13
13 13 13 13 14 14 13 12 13 14 14 14 14 13 13 12 12 12 12 12 11 11 12 12 12 12 12 12 12 12 12 12 12 12 12 12 13 13 13 13 13 13 13 13 13 13 13 13 13
13 12 12 14 14 13 12 11 14 15 14 14 14 13 13 12 12 11 11 11 11 11 11 11 11 11 11 11 11 11 11 12 12 12 12 12 12 13 13 13 13 13 13 13 13 13 13 12 12
12 12 13 14 14 14 12 12 14 15 14 14 14 13 13 12 12 11 11 11 11 11 11 11 11 11 11 11 11 11 11 11 11 12 12 12 12 12 13 13 13 13 13 13 12 12 12 12 12
12 12 13 14 14 13 12 12 13 14 14 14 14 13 12 12 12 11 11 11 11 10 10 10 11 11 10 11 11 10 11 11 11 11 12 12 12 12 12 12 13 13 12 12 12 12 12 12 12
13 13 13 14 14 13 12 12 13 13 13 13 13 13 12 12 11 11 11 10 10 10 10 10 10 10 10 10 10 10 10 11 11 11 11 11 12 12 12 12 12 12 12 12 12 12 12 12 12
12 12 12 13 14 13 12 12 12 13 13 13 13 12 12 11 11 11 10 10 10 10 10 10 10 10 10 10 10 10 10 10 11 11 11 11 11 12 12 12 12 12 12 12 12 12 12 11 11
12 11 11 12 12 12 11 11 12 12 13 12 12 12 12 11 11 10 10 10 9 9 9 9 9 9 10 10 10 10 10 10 10 10 11 11 11 11 11 11 11 11 11 11 11 11 11 11 11
11 12 12 12 10 10 11 9 11 12 12 11 11 11 11 11 10 10 9 9 9 9 9 9 9 9 9 9 10 10 10 9 10 10 10 10 10 11 11 11 11 11 11 11 11 11 11 11 11
11 12 11 11 10 9 10 9 10 12 11 11 11 11 11 11 10 9 9 9 9 9 9 9 9 9 9 9 9 9 9 9 9 9 10 10 10 10 10 10 10 10 10 10 10 10 10 10 10
11 11 10 10 9 8 9 9 10 11 11 11 11 11 11 10 10 9 9 9 8 8 8 8 9 8 9 8 9 9 9 9 9 9 9 9 9 10 10 10 10 10 10 10 10 10 10 10 10
10 9 8 8 7 8 11 10 10 11 12 11 11 11 10 10 9 9 9 8 8 8 8 8 8 8 8 8 8 8 8 8 8 9 9 9 9 9 9 9 9 10 10 10 10 10 10 9 9
9 9 8 8 9 9 10 9 10 11 11 11 11 11 10 9 9 8 8 8 8 8 8 7 7 8 8 8 8 8 8 8 8 8 8 9 9 9 9 9 9 9 9 9 9 9 9 9 9
9 8 10 9 9 9 10 10 10 10 10 10 10 10 9 9 8 8 8 7 7 7 7 7 7 7 7 7 7 7 7 8 8 8 8 8 8 8 9 9 9 9 9 9 9 9 9 9 9
9 9 8 7 8 8 10 10 9 9 9 9 9 8 9 8 8 8 7 7 7 7 7 7 7 7 7 7 7 7 7 7 7 8 8 8 8 8 8 8 8 8 8 8 8 8 8 8 8
7 8 8 7 8 8 9 9 10 9 9 9 8 8 8 8 7 7 7 7 7 7 6 6 6 6 6 6 6 6 6 6 7 7 7 7 7 7 7 7 7 7 7 7 7 7 7 7 7
8 8 8 7 7 8 8 8 9 9 9 8 8 8 7 7 7 7 6 6 6 6 6 6 6 6 6 6 6 6 6 6 6 6 6 7 7 7 7 7 7 7 7 7 7 7 7 7 7
Wind_Speed
12 12 6 3 3 5 7 5 3 1 1 4 5 4 5 4 3 5 4 6 9 9 12 11 10 9 9 8 8 8 8 8 8 8 8 8 8 8 8 8 9 10 10 9 9 10 10 10 10
11 7 4 3 4 6 6 5 3 1 4 5 3 2 3 2 6 6 5 7 8 8 11 10 10 9 9 8 7 8 8 8 8 8 8 8 7 7 8 8 8 9 9 9 9 10 9 9 9
9 6 4 4 5 5 3 1 3 4 5 2 0 2 3 3 5 4 5 6 6 7 10 11 11 9 8 8 7 7 7 7 7 7 7 7 7 7 8 8 8 8 9 9 9 9 9 9 9
4 3 4 5 10 6 3 1 4 3 2 0 1 1 1 5 4 5 5 4 5 6 9 10 10 9 8 8 7 6 6 6 6 7 7 7 7 7 7 8 8 9 9 9 9 9 8 8 8
3 4 5 7 10 6 3 1 2 1 2 2 2 2 1 4 6 6 4 3 4 5 8 10 10 9 8 8 7 7 6 6 6 7 7 7 7 7 7 8 8 9 9 9 9 8 8 8 7
3 4 5 8 8 5 3 2 2 4 3 2 2 3 1 5 6 5 3 2 3 5 6 8 9 9 8 8 7 7 6 6 6 7 7 7 7 7 8 8 9 9 9 9 9 8 8 7 7
4 4 6 8 7 4 3 3 4 5 5 3 1 2 2 4 5 3 2 1 2 4 4 6 7 8 8 7 7 7 7 6 6 7 7 6 7 7 7 8 9 9 9 8 8 8 7 7 6
4 4 6 6 7 5 1 1 1 4 5 1 1 3 2 4 5 3 2 1 2 3 4 4 6 7 7 7 7 8 8 7 6 7 7 7 7 7 8 8 9 9 9 8 8 8 8 7 7
4 4 5 5 4 2 2 1 1 2 4 3 2 3 1 5 4 3 1 0 0 1 3 4 4 5 7 6 6 7 8 8 7 7 9 9 7 8 8 8 9 9 9 9 8 8 8 8 7
4 4 5 3 4 4 2 2 2 2 6 5 4 2 2 3 3 3 3 3 2 2 2 3 4 4 5 6 6 6 7 8 8 8 9 8 7 7 7 9 10 10 9 9 8 8 8 7 7
5 6 5 5 4 5 4 5 4 5 7 7 6 4 4 4 3 4 4 3 3 2 2 2 3 3 4 4 5 5 5 6 6 7 7 7 7 6 6 7 8 9 9 7 8 8 7 6 5
6 7 7 6 4 4 6 6 6 8 8 5 4 2 3 5 6 6 5 4 3 2 2 2 3 3 4 4 4 4 4 4 4 6 6 5 4 4 4 4 5 6 6 5 5 5 5 5 5
10 8 8 6 5 7 8 9 9 10 8 7 4 4 5 6 5 4 3 3 3 2 2 1 3 4 4 3 3 4 3 4 5 5 6 6 3 3 3 4 5 5 4 4 4 3 3 3 3
5 7 8 8 8 8 9 10 9 10 7 7 6 6 6 5 4 3 3 3 3 3 2 2 3 4 4 4 4 3 4 4 5 5 6 6 5 4 3 3 4 4 4 4 3 3 2 2 2
5 8 10 10 10 6 5 10 11 11 8 8 7 7 6 6 5 4 4 3 2 2 3 2 2 3 4 4 4 3 4 5 4 4 5 6 6 4 4 3 3 4 5 4 3 2 2 2 2
6 7 7 7 10 7 6 10 8 7 8 9 8 7 6 6 6 5 4 3 2 2 3 3 2 3 4 3 2 2 3 4 4 4 5 6 6 5 4 3 3 4 4 3 2 2 2 2 2
8 7 9 7 8 7 9 9 6 4 6 8 8 7 7 6 6 6 4 4 3 3 3 3 3 3 4 4 2 2 3 3 4 5 4 5 5 5 5 3 3 5 3 2 2 2 2 2 2
7 7 8 8 6 7 10 11 8 6 8 8 7 7 6 7 6 5 4 4 4 3 4 4 3 3 3 4 3 2 3 3 3 3 4 5 5 6 5 4 4 4 3 3 3 2 2 2 2
9 10 11 9 4 6 10 13 11 9 8 8 7 7 7 7 5 4 4 4 4 4 4 3 3 3 3 3 3 3 3 3 3 3 4 4 4 5 5 4 4 4 4 4 4 3 2 2 2
14 14 13 10 4 5 10 14 12 10 10 8 7 7 7 6 5 5 5 5 5 5 4 4 3 3 4 3 3 3 3 2 3 3 4 4 4 5 5 4 4 4 3 3 3 3 2 1 2
15 14 12 10 6 7 9 11 11 9 8 7 7 6 6 6 6 6 6 5 4 4 4 4 4 3 3 3 3 3 2 2 2 3 3 3 4 4 4 4 4 4 4 4 3 3 3 3 1
13 9 9 9 7 6 5 7 8 7 8 8 8 7 6 5 5 6 6 5 5 4 4 4 4 4 3 3 4 5 4 3 2 3 3 4 4 4 4 4 4 4 3 4 4 3 2 3 3
7 2 5 7 8 9 8 7 8 6 8 9 8 7 6 6 6 7 6 5 5 4 4 4 5 4 3 3 5 5 4 2 2 3 4 4 3 3 3 3 3 3 3 3 4 3 3 3 3
4 3 4 5 5 9 11 10 8 6 7 6 6 6 6 6 6 6 6 6 5 5 5 5 5 4 4 3 4 5 5 4 4 4 3 3 3 2 2 3 3 3 2 3 3 3 3 3 2
7 4 3 4 6 8 7 8 7 3 4 5 6 6 7 7 6 6 7 6 6 6 6 5 5 4 4 4 4 4 4 4 5 4 4 4 3 2 2 2 2 2 2 2 2 3 2 3 3
11 10 7 6 5 4 5 8 4 2 4 4 4 5 6 7 6 6 6 6 6 7 6 6 5 5 4 4 3 3 4 3 3 3 3 3 3 3 2 3 3 2 3 2 2 2 2 2 2
8 10 7 4 5 5 6 4 2 3 4 4 5 5 5 6 6 6 5 5 5 6 6 6 6 5 5 4 3 4 3 3 4 3 3 2 3 3 3 3 3 2 3 2 2 2 2 2 2
6 5 4 5 5 6 7 7 5 5 6 5 5 4 4 4 5 5 5 5 5 5 5 6 6 5 5 5 4 4 4 4 4 4 3 3 3 3 3 3 2 2 2 2 2 2 2 2 1
8 6 6 5 5 4 5 3 0 5 5 5 4 3 4 4 5 5 5 5 5 5 5 5 6 5 5 5 4 4 4 4 4 4 3 3 3 3 3 3 3 3 2 2 2 2 2 2 2
8 9 8 5 6 5 4 4 2 3 4 4 4 3 3 4 4 4 5 5 5 5 5 5 5 6 6 5 5 5 4 4 4 4 3 3 3 3 2 2 2 2 2 2 2 2 2 2 2
Wind_Direction
297 273 258 254 242 232 239 236 256 349 40 36 19 348 335 340 18 99 140 99 100 114 123 123 121 121 118 118 125 128 128 129 129 128 127 130 135 140 140 136 131 124 120 116 112 106 106 109 108
291 279 256 239 239 236 232 218 222 330 58 52 17 321 315 22 79 100 106 89 102 114 124 126 125 125 123 118 119 129 132 132 133 135 133 132 136 141 142 140 136 131 126 120 113 110 109 114 114
276 269 252 233 234 239 251 73 90 58 62 86 176 311 319 49 83 94 92 100 105 109 119 127 130 130 128 126 123 126 135 138 136 139 139 138 137 139 140 139 137 134 130 124 119 116 117 119 117
268 236 243 244 249 252 272 54 63 75 90 180 207 243 74 53 68 81 87 103 108 112 116 129 138 138 134 131 132 132 138 145 145 142 143 143 142 140 142 141 138 135 132 130 125 122 125 125 124
247 248 234 236 245 252 272 43 67 226 199 204 239 258 113 84 78 81 83 102 114 114 117 132 142 147 145 143 142 140 138 145 149 147 147 149 148 146 144 142 142 140 135 136 134 131 132 132 130
247 243 243 244 245 231 214 200 244 256 242 208 238 261 215 109 88 85 86 79 90 107 114 135 143 148 152 154 153 152 144 148 156 155 151 154 154 151 149 147 147 146 141 142 141 139 138 138 137
262 258 251 264 266 242 211 176 220 252 252 223 233 265 170 109 95 96 82 79 87 101 115 130 145 150 151 155 162 161 155 153 162 164 161 155 155 156 155 152 150 148 145 144 145 147 145 147 148
285 283 258 255 263 264 197 179 213 270 274 274 224 247 188 121 105 94 80 82 103 112 123 136 153 155 155 154 165 168 162 161 166 172 169 163 158 158 161 155 154 151 148 149 150 155 153 155 159
270 250 253 265 275 295 78 267 250 332 284 274 250 291 28 106 109 110 114 96 137 139 138 149 160 158 157 161 172 170 168 171 174 176 174 172 174 163 161 159 159 158 157 155 157 163 161 161 171
225 239 248 293 324 332 329 276 268 240 258 251 241 243 148 147 156 179 199 199 199 200 175 162 163 158 154 166 171 178 179 180 183 180 181 182 165 164 165 165 168 168 168 167 169 171 172 169 177
220 240 276 290 312 323 305 281 272 253 253 246 235 211 173 181 201 208 214 207 200 208 201 174 168 160 160 166 172 177 178 183 182 177 181 168 162 164 157 157 168 172 170 171 173 171 176 174 172
241 254 263 277 302 296 280 275 268 248 253 279 283 223 186 208 212 207 211 209 210 209 209 189 172 167 174 177 169 168 170 171 167 175 178 166 152 152 155 153 159 160 164 164 165 169 176 177 165
238 257 260 261 260 263 267 264 269 261 258 265 260 218 215 219 212 212 210 194 201 202 205 204 188 182 184 188 182 176 172 168 162 170 176 169 154 163 155 149 150 153 158 159 161 162 169 164 152
272 276 270 262 253 252 257 261 254 255 245 245 237 220 213 216 210 216 216 208 197 194 195 211 203 192 187 195 191 182 162 159 160 164 167 166 155 152 157 151 147 149 156 159 157 161 153 150 140
276 279 268 243 234 233 251 258 239 243 237 238 230 222 209 209 208 214 211 210 197 183 179 187 199 192 185 198 202 175 161 158 152 158 165 163 161 158 154 155 156 153 155 153 148 146 129 140 141
239 247 252 223 205 197 208 255 249 226 222 233 227 219 210 208 205 203 204 198 186 180 185 191 200 187 183 182 200 166 161 154 147 151 158 159 162 160 149 150 151 139 140 135 144 152 142 140 136
223 240 247 242 200 190 207 252 254 234 225 232 227 216 208 206 203 196 192 180 176 183 179 175 180 184 182 172 173 165 155 151 140 141 147 152 157 154 142 144 143 140 129 132 149 141 141 144 136
227 239 253 247 200 210 230 251 257 251 238 233 227 217 209 209 207 188 175 166 164 175 163 166 176 181 181 174 160 155 156 160 140 139 148 153 157 153 142 143 143 139 144 150 143 139 122 130 136
265 271 273 274 260 238 249 258 258 250 238 232 227 220 214 211 193 171 160 154 154 150 147 155 159 168 158 169 164 166 172 168 159 150 152 152 151 148 148 149 146 145 153 156 144 139 135 109 94
250 262 270 281 258 266 271 270 262 245 235 225 221 218 211 200 183 169 159 154 160 155 154 152 148 164 169 180 177 177 169 171 166 158 155 147 146 152 151 145 150 146 146 145 144 135 140 122 111
240 243 254 269 286 262 276 277 248 236 224 216 213 208 203 190 179 170 161 158 152 151 156 164 160 162 164 168 156 150 133 134 154 156 159 142 132 131 134 140 142 152 155 157 152 144 144 159 159
245 240 248 261 274 265 226 279 258 221 214 210 207 201 194 182 168 160 159 156 159 159 158 158 152 145 151 152 147 147 149 160 174 159 144 124 116 119 124 131 138 147 150 153 158 150 148 154 167
233 255 252 252 257 270 245 253 267 209 218 207 197 193 184 175 160 158 159 157 151 149 155 156 144 137 131 143 144 148 139 136 126 126 128 130 117 106 110 115 128 138 141 148 151 158 157 160 163
211 244 264 248 248 255 231 225 264 217 210 189 181 179 172 165 157 157 156 152 146 148 149 148 141 141 137 142 150 148 144 141 137 134 138 129 120 110 99 110 101 110 126 142 151 155 154 164 157
193 180 212 211 217 242 211 216 246 224 178 172 171 168 161 158 159 162 160 159 155 151 145 141 143 141 147 148 148 149 142 144 151 149 143 133 127 117 129 110 113 105 105 125 134 151 155 162 158
200 197 197 213 228 244 205 225 238 179 145 137 138 144 148 154 162 163 162 160 155 149 147 145 142 134 138 137 138 131 124 135 141 136 136 142 144 141 136 120 111 109 113 112 129 160 163 156 169
198 214 233 269 288 269 237 213 208 175 139 139 138 137 140 151 159 162 158 157 152 152 155 152 149 145 142 141 141 131 123 121 122 125 121 128 133 135 131 126 126 119 114 115 124 137 154 163 176
228 204 191 207 225 245 249 227 209 182 188 173 160 154 145 141 152 155 157 161 160 155 153 154 154 157 145 142 148 143 133 125 125 122 120 113 112 117 130 131 136 133 130 124 124 130 129 127 164
200 213 208 208 229 230 257 255 157 167 165 163 160 142 140 136 149 154 156 157 155 148 148 152 154 146 143 145 143 133 126 122 120 118 116 112 106 113 129 134 134 133 130 126 127 134 146 156 174
203 205 201 204 228 227 253 264 23 85 114 125 126 106 107 118 136 148 154 152 149 154 156 157 154 150 148 145 144 137 130 123 119 117 113 109 109 112 117 118 121 130 135 142 154 164 163 175 189
Height
1500 1502 1504 1507 1508 1508 1502 1491 1485 1486 1487 1490 1492 1493 1494 1496 1499 1509 1508 1506 1506 1506 1507 1509 1511 1512 1514 1515 1517 1519 1521 1522 1524 1526 1527 1528 1530 1531 1533 1534 1535 1537 1538 1539 1540 1541 1542 1543 1544
1500 1502 1506 1506 1507 1508 1498 1488 1488 1488 1490 1492 1494 1495 1495 1497 1500 1503 1505 1505 1505 1506 1507 1509 1510 1512 1513 1515 1517 1519 1521 1522 1524 1525 1527 1528 1530 1531 1533 1534 1535 1537 1538 1539 1540 1542 1543 1543 1544
1500 1503 1505 1503 1501 1500 1493 1486 1487 1489 1491 1493 1495 1496 1497 1499 1501 1503 1504 1505 1506 1506 1507 1508 1510 1511 1513 1515 1516 1518 1520 1522 1523 1525 1527 1528 1530 1531 1533 1534 1535 1537 1538 1539 1541 1542 1543 1544 1545
1502 1504 1504 1503 1498 1490 1487 1487 1488 1490 1493 1494 1495 1497 1498 1500 1501 1502 1503 1504 1505 1506 1507 1508 1509 1511 1512 1514 1516 1517 1519 1521 1523 1524 1526 1528 1529 1531 1532 1534 1535 1537 1538 1539 1541 1542 1543 1544 1545
1502 1503 1502 1500 1494 1487 1485 1487 1489 1491 1492 1494 1496 1496 1498 1499 1500 1501 1502 1504 1505 1505 1506 1507 1509 1510 1511 1513 1515 1516 1518 1520 1522 1523 1525 1527 1528 1530 1532 1533 1535 1536 1538 1539 1540 1542 1543 1544 1545
1503 1500 1501 1499 1490 1485 1485 1487 1490 1491 1492 1494 1496 1496 1498 1498 1499 1500 1502 1503 1504 1504 1505 1506 1507 1509 1510 1512 1513 1515 1517 1519 1520 1522 1524 1526 1528 1529 1531 1532 1534 1536 1537 1539 1540 1541 1542 1544 1545
1502 1499 1497 1492 1488 1485 1485 1486 1489 1491 1491 1493 1495 1496 1496 1497 1498 1499 1501 1502 1503 1503 1504 1505 1506 1507 1509 1510 1512 1514 1516 1517 1519 1521 1523 1525 1527 1528 1530 1532 1533 1535 1537 1538 1539 1541 1542 1543 1545
1499 1499 1494 1490 1487 1485 1484 1486 1488 1491 1491 1492 1494 1494 1495 1496 1496 1498 1499 1500 1501 1502 1502 1503 1504 1505 1506 1508 1510 1512 1514 1516 1518 1520 1522 1523 1525 1527 1529 1531 1532 1534 1536 1537 1539 1540 1542 1543 1544
1499 1501 1496 1488 1486 1484 1484 1486 1488 1489 1490 1491 1492 1493 1493 1493 1494 1496 1497 1498 1499 1500 1500 1501 1502 1503 1504 1506 1508 1510 1512 1514 1516 1518 1520 1522 1524 1526 1527 1529 1531 1533 1535 1536 1538 1540 1541 1542 1544
1497 1498 1490 1486 1485 1485 1485 1486 1488 1489 1489 1489 1490 1491 1491 1492 1492 1494 1494 1495 1496 1497 1498 1499 1499 1501 1502 1503 1505 1508 1510 1512 1514 1516 1518 1520 1522 1524 1526 1528 1530 1532 1534 1535 1537 1539 1540 1542 1543
1493 1491 1487 1485 1485 1486 1486 1486 1487 1487 1487 1487 1488 1488 1489 1489 1490 1491 1492 1493 1494 1495 1495 1496 1497 1498 1499 1501 1503 1505 1507 1509 1512 1514 1516 1518 1520 1522 1524 1526 1528 1530 1532 1534 1536 1538 1539 1541 1542
1489 1487 1486 1486 1486 1486 1486 1485 1485 1484 1484 1485 1485 1485 1486 1486 1488 1488 1489 1490 1491 1492 1493 1493 1494 1495 1497 1498 1500 1502 1504 1507 1509 1511 1514 1516 1518 1520 1522 1524 1526 1528 1530 1533 1534 1536 1538 1540 1542
1486 1485 1484 1484 1484 1485 1485 1483 1483 1480 1481 1482 1482 1483 1483 1483 1485 1486 1487 1487 1488 1488 1489 1490 1491 1493 1494 1495 1497 1499 1502 1504 1506 1509 1511 1514 1516 1518 1520 1522 1525 1527 1529 1531 1533 1535 1537 1539 1540
1483 1483 1482 1482 1482 1482 1482 1480 1480 1475 1478 1478 1479 1479 1480 1480 1481 1482 1483 1484 1484 1485 1486 1487 1488 1489 1490 1492 1494 1497 1499 1501 1504 1506 1509 1511 1514 1516 1519 1521 1523 1525 1527 1529 1531 1533 1535 1537 1539
1483 1483 1480 1477 1477 1478 1480 1477 1473 1471 1473 1474 1474 1475 1476 1477 1478 1479 1480 1480 1481 1481 1482 1483 1484 1486 1487 1489 1492 1494 1496 1498 1501 1503 1506 1508 1511 1514 1516 1518 1521 1523 1525 1527 1529 1531 1533 1535 1537
1482 1482 1480 1471 1471 1473 1480 1475 1467 1467 1468 1469 1470 1471 1472 1473 1474 1475 1476 1477 1478 1478 1479 1480 1481 1482 1484 1486 1488 1491 1493 1495 1497 1500 1503 1506 1508 1511 1514 1516 1518 1521 1523 1525 1527 1529 1531 1533 1535
1480 1479 1474 1469 1466 1468 1473 1469 1464 1463 1464 1464 1465 1466 1467 1469 1470 1471 1472 1473 1474 1475 1476 1476 1478 1479 1480 1482 1485 1488 1490 1492 1495 1497 1500 1503 1506 1509 1511 1513 1516 1518 1520 1523 1525 1527 1529 1531 1533
1475 1473 1467 1465 1462 1464 1467 1464 1460 1460 1460 1460 1460 1462 1463 1464 1465 1467 1468 1470 1471 1472 1473 1474 1475 1476 1477 1479 1482 1485 1487 1490 1492 1494 1497 1501 1503 1506 1509 1511 1514 1516 1518 1521 1523 1525 1527 1529 1531
1467 1467 1467 1462 1459 1462 1462 1459 1456 1455 1455 1455 1456 1457 1458 1460 1462 1463 1465 1466 1468 1468 1469 1470 1472 1473 1474 1476 1478 1481 1484 1487 1489 1492 1495 1498 1501 1503 1506 1508 1511 1513 1516 1518 1520 1522 1524 1526 1528
1467 1468 1466 1461 1458 1460 1459 1454 1450 1448 1448 1449 1450 1452 1453 1455 1457 1459 1461 1462 1464 1465 1466 1468 1469 1470 1472 1474 1476 1479 1482 1484 1487 1490 1493 1495 1498 1500 1503 1506 1508 1510 1513 1515 1517 1519 1521 1523 1525
1463 1465 1464 1463 1459 1458 1460 1454 1445 1441 1442 1444 1445 1447 1449 1451 1453 1455 1457 1459 1460 1461 1463 1465 1466 1468 1469 1472 1474 1477 1480 1482 1485 1487 1490 1493 1495 1497 1500 1503 1505 1508 1510 1512 1514 1516 1519 1520 1523
1460 1456 1458 1460 1465 1465 1460 1463 1441 1437 1438 1439 1441 1442 1444 1447 1449 1451 1453 1455 1457 1459 1461 1462 1464 1466 1467 1469 1471 1474 1476 1479 1481 1484 1488 1490 1493 1495 1497 1500 1503 1505 1507 1509 1512 1514 1516 1518 1520
1453 1455 1457 1459 1463 1464 1458 1461 1442 1433 1435 1435 1436 1438 1440 1443 1446 1447 1449 1451 1454 1456 1458 1460 1461 1463 1465 1466 1468 1471 1474 1477 1479 1482 1485 1488 1490 1493 1495 1498 1500 1502 1504 1507 1509 1511 1513 1515 1517
1452 1456 1457 1459 1463 1466 1452 1455 1440 1432 1428 1429 1432 1434 1437 1440 1443 1445 1447 1449 1451 1453 1455 1457 1459 1461 1463 1465 1466 1468 1471 1475 1477 1480 1482 1485 1488 1491 1493 1495 1497 1499 1502 1504 1506 1508 1510 1512 1514
1451 1459 1466 1466 1467 1457 1438 1441 1435 1424 1422 1424 1428 1431 1434 1437 1440 1442 1444 1446 1448 1450 1452 1454 1457 1459 1460 1463 1464 1467 1470 1473 1475 1478 1480 1482 1485 1488 1491 1493 1495 1497 1499 1501 1503 1505 1507 1509 1511
1446 1450 1458 1459 1453 1443 1436 1437 1430 1421 1420 1422 1426 1429 1432 1435 1437 1440 1442 1443 1445 1447 1450 1452 1455 1456 1458 1460 1462 1465 1468 1471 1474 1476 1478 1480 1483 1486 1488 1491 1493 1494 1496 1498 1500 1502 1504 1506 1508
1442 1445 1441 1447 1444 1445 1434 1426 1425 1420 1421 1423 1426 1428 1430 1433 1435 1437 1440 1442 1443 1445 1448 1451 1453 1455 1457 1459 1461 1463 1466 1469 1472 1474 1477 1479 1481 1483 1486 1488 1490 1492 1494 1495 1497 1499 1501 1503 1504
1436 1437 1444 1449 1449 1443 1428 1423 1425 1423 1422 1423 1425 1427 1429 1431 1434 1436 1438 1440 1442 1444 1446 1449 1452 1454 1456 1458 1460 1462 1465 1467 1470 1472 1474 1476 1479 1481 1483 1485 1487 1489 1491 1493 1494 1496 1498 1499 1501
1436 1438 1437 1440 1439 1439 1434 1428 1415 1417 1418 1421 1424 1426 1428 1430 1432 1434 1436 1438 1440 1442 1445 1447 1450 1452 1454 1456 1458 1460 1463 1465 1468 1470 1472 1475 1477 1479 1481 1483 1484 1486 1488 1490 1491 1493 1494 1496 1497
1427 1429 1433 1441 1438 1432 1433 1430 1417 1416 1417 1420 1423 1426 1427 1429 1431 1432 1434 1436 1438 1440 1443 1445 1448 1450 1452 1454 1456 1459 1461 1463 1465 1468 1470 1473 1475 1477 1478 1480 1482 1484 1485 1487 1488 1490 1491 1492 1493